Weather History for KMOX - August, 2013

Change the Weather History Date:

Wednesday, August 28, 2013

  Actual Average Record
Temperature  
Mean Temperature 76 °F -  
Max Temperature 86 °F 76 °F 86 °F (2013)
Min Temperature 66 °F 54 °F 48 °F (2008)
Cooling Degree Days 11    
Growing Degree Days 26 (Base 50)    
Moisture  
Dew Point 71 °F    
Average Humidity 85    
Maximum Humidity 100    
Minimum Humidity 58    
Precipitation  
Precipitation 0.00 in - - ()
Sea Level Pressure  
Sea Level Pressure 29.97 in    
Wind  
Wind Speed 6 mph (ESE)    
Max Wind Speed 14 mph    
Max Gust Speed 16 mph    
Visibility 9 miles    
Events Rain , Thunderstorm    
Averages and records for this station are not official NWS values.
T = Trace of Precipitation, MM = Missing Value Source: NWS Daily Summary

Daily Weather History Graph

Daily Weather History Graph

Search for Another Location

Airport or City:

Trip Planner

Search our weather history database for the weather conditions in past years. The results will help you decide how hot, cold, wet, or windy it might be!

Date:

Astronomy

Aug. 28, 2013 Rise Set
Actual Time 6:40 AM CDT 8:08 PM CDT
Civil Twilight 6:09 AM CDT 8:39 PM CDT
Nautical Twilight 5:32 AM CDT 9:16 PM CDT
Astronomical Twilight 4:51 AM CDT 9:56 PM CDT
Moon No Moon Rise 2:55 PM CDT (8/28)
Length of Visible Light 14h 29m
Length of Day
13h 27m
Waning Gibbous, 47% of the Moon is Illuminated
Aug 28
Waning Gibbous
Sep 5
New
Sep 12
First Quarter
Sep 19
Full
Sep 26
Last Quarter

Hourly Weather History & Observations

Time (CDT) Temp. Heat Index Dew Point Humidity Pressure Visibility Wind Dir Wind Speed Gust Speed Precip Events Conditions
12:13 AM 71.6 °F - 68.0 °F 88% 29.94 in 10.0 mi ESE 5.8 mph - N/A   Clear
12:28 AM 69.8 °F - 66.2 °F 88% 29.95 in 10.0 mi ESE 4.6 mph - N/A   Clear
12:48 AM 69.8 °F - 68.0 °F 94% 29.95 in 10.0 mi ESE 4.6 mph - N/A   Clear
1:08 AM 68.0 °F - 66.2 °F 94% 29.95 in 10.0 mi ESE 4.6 mph - N/A   Clear
1:48 AM 66.2 °F - 66.2 °F 100% 29.94 in 10.0 mi ESE 5.8 mph - N/A   Clear
2:08 AM 66.2 °F - 66.2 °F 100% 29.94 in 10.0 mi ESE 3.5 mph - N/A   Clear
2:28 AM 66.2 °F - 66.2 °F 100% 29.93 in 10.0 mi East 6.9 mph - N/A   Clear
2:48 AM 68.0 °F - 66.2 °F 94% 29.93 in 10.0 mi ESE 5.8 mph - N/A   Clear
3:08 AM 68.0 °F - 66.2 °F 94% 29.93 in 10.0 mi East 5.8 mph - N/A   Clear
3:28 AM 68.0 °F - 66.2 °F 94% 29.95 in 10.0 mi Calm Calm - N/A   Clear
3:48 AM 68.0 °F - 66.2 °F 94% 29.95 in 10.0 mi Calm Calm - N/A   Clear
4:08 AM 68.0 °F - 66.2 °F 94% 29.95 in 10.0 mi Calm Calm - N/A   Clear
4:28 AM 68.0 °F - 66.2 °F 94% 29.95 in 7.0 mi East 3.5 mph - N/A   Clear
4:48 AM 69.8 °F - 68.0 °F 94% 29.94 in 10.0 mi East 6.9 mph - N/A   Clear
5:08 AM 69.8 °F - 68.0 °F 94% 29.94 in 7.0 mi East 6.9 mph - N/A   Clear
5:28 AM 69.8 °F - 69.8 °F 100% 29.94 in 7.0 mi East 5.8 mph - N/A   Clear
5:48 AM 69.8 °F - 68.0 °F 94% 29.94 in 7.0 mi SE 6.9 mph - N/A   Clear
6:08 AM 68.0 °F - 66.2 °F 94% 29.95 in 5.0 mi Calm Calm - N/A   Clear
6:28 AM 68.0 °F - 66.2 °F 94% 29.96 in 4.0 mi Calm Calm - N/A   Clear
6:48 AM 66.2 °F - 66.2 °F 100% 29.96 in 4.0 mi East 4.6 mph - N/A   Clear
7:08 AM 66.2 °F - 66.2 °F 100% 29.96 in 4.0 mi East 6.9 mph - N/A   Clear
7:28 AM 68.0 °F - 68.0 °F 100% 29.98 in 5.0 mi East 3.5 mph - N/A   Clear
7:48 AM 71.6 °F - 71.6 °F 100% 29.98 in 5.0 mi East 4.6 mph - N/A   Clear
8:08 AM 73.4 °F - 71.6 °F 94% 29.99 in 7.0 mi ESE 4.6 mph - N/A   Clear
8:28 AM 75.2 °F - 71.6 °F 89% 30.00 in 10.0 mi SE 6.9 mph - N/A   Clear
8:48 AM 75.2 °F - 71.6 °F 89% 30.00 in 10.0 mi SE 4.6 mph - N/A   Clear
9:08 AM 75.2 °F - 73.4 °F 94% 30.00 in 10.0 mi East 4.6 mph - N/A   Clear
9:28 AM 77.0 °F - 73.4 °F 89% 30.00 in 10.0 mi SE 5.8 mph - N/A   Clear
9:48 AM 78.8 °F - 73.4 °F 83% 30.02 in 10.0 mi ESE 4.6 mph - N/A Thunderstorm Scattered Clouds
10:08 AM 78.8 °F - 73.4 °F 83% 30.03 in 10.0 mi Calm Calm - N/A   Mostly Cloudy
10:28 AM 78.8 °F - 73.4 °F 83% 30.02 in 10.0 mi SE 4.6 mph - N/A   Scattered Clouds
10:48 AM 78.8 °F - 73.4 °F 83% 30.01 in 10.0 mi SE 5.8 mph - N/A   Clear
11:08 AM 78.8 °F - 73.4 °F 83% 29.99 in 10.0 mi ESE 8.1 mph - N/A Rain Light Rain
11:28 AM 77.0 °F - 73.4 °F 89% 30.00 in 10.0 mi SE 8.1 mph - N/A Rain Light Rain
11:48 AM 77.0 °F - 75.2 °F 94% 30.00 in 10.0 mi SE 6.9 mph - N/A   Light Drizzle
12:08 PM 78.8 °F - 75.2 °F 89% 30.00 in 10.0 mi SE 6.9 mph - N/A   Clear
12:28 PM 78.8 °F - 75.2 °F 89% 29.98 in 10.0 mi ESE 9.2 mph 16.1 mph N/A   Light Drizzle
12:48 PM 80.6 °F 86.2 °F 75.2 °F 84% 29.98 in 10.0 mi ESE 9.2 mph - N/A   Clear
1:08 PM 80.6 °F 85.4 °F 73.4 °F 79% 29.96 in 10.0 mi ESE 12.7 mph - N/A   Clear
1:28 PM 82.4 °F 88.2 °F 73.4 °F 74% 29.97 in 10.0 mi ESE 13.8 mph - N/A   Clear
1:48 PM 84.2 °F 89.6 °F 71.6 °F 66% 29.97 in 10.0 mi ESE 12.7 mph - N/A   Clear
2:08 PM 86.0 °F 90.4 °F 69.8 °F 58% 29.97 in 10.0 mi SE 12.7 mph - N/A   Clear
2:28 PM 84.2 °F 88.4 °F 69.8 °F 62% 29.97 in 10.0 mi SE 11.5 mph - N/A   Clear
2:48 PM 84.2 °F 88.4 °F 69.8 °F 62% 29.96 in 10.0 mi ESE 9.2 mph - N/A   Clear
3:08 PM 82.4 °F 86.3 °F 69.8 °F 66% 29.97 in 10.0 mi SE 8.1 mph - N/A   Clear
3:28 PM 86.0 °F 91.8 °F 71.6 °F 62% 29.97 in 10.0 mi SE 6.9 mph - N/A   Clear
3:48 PM 84.2 °F 89.6 °F 71.6 °F 66% 29.98 in 10.0 mi SSE 6.9 mph - N/A   Clear
4:08 PM 86.0 °F 91.8 °F 71.6 °F 62% 29.98 in 10.0 mi South 6.9 mph - N/A   Clear
4:28 PM 86.0 °F 91.8 °F 71.6 °F 62% 29.98 in 10.0 mi SE 5.8 mph - N/A   Clear
4:48 PM 86.0 °F 91.8 °F 71.6 °F 62% 29.97 in 10.0 mi SSE 6.9 mph - N/A   Clear
5:08 PM 84.2 °F 88.4 °F 69.8 °F 62% 29.97 in 10.0 mi SSE 8.1 mph - N/A   Clear
5:28 PM 86.0 °F 91.8 °F 71.6 °F 62% 29.97 in 10.0 mi SE 8.1 mph - N/A   Clear
5:48 PM 84.2 °F 89.6 °F 71.6 °F 66% 29.97 in 10.0 mi ESE 6.9 mph - N/A   Clear
6:08 PM 82.4 °F 88.2 °F 73.4 °F 74% 29.97 in 10.0 mi SE 6.9 mph - N/A   Clear
6:28 PM 82.4 °F 88.2 °F 73.4 °F 74% 29.96 in 10.0 mi SE 5.8 mph - N/A   Clear
6:48 PM 84.2 °F 90.9 °F 73.4 °F 70% 29.96 in 10.0 mi SE 5.8 mph - N/A   Clear
7:08 PM 84.2 °F 90.9 °F 73.4 °F 70% 29.96 in 10.0 mi SE 4.6 mph - N/A   Clear
7:28 PM 80.6 °F 85.4 °F 73.4 °F 79% 29.96 in 10.0 mi ESE 4.6 mph - N/A   Clear
7:48 PM 78.8 °F - 73.4 °F 83% 29.96 in 10.0 mi ESE 4.6 mph - N/A   Clear
8:08 PM 77.0 °F - 73.4 °F 89% 29.96 in 10.0 mi East 5.8 mph - N/A   Clear
8:28 PM 77.0 °F - 73.4 °F 89% 29.96 in 10.0 mi ESE 5.8 mph - N/A   Clear
8:48 PM 75.2 °F - 73.4 °F 94% 29.96 in 10.0 mi ESE 6.9 mph - N/A   Clear
9:08 PM 75.2 °F - 73.4 °F 94% 29.96 in 10.0 mi ESE 6.9 mph - N/A   Clear
9:28 PM 75.2 °F - 73.4 °F 94% 29.96 in 10.0 mi ESE 8.1 mph - N/A   Clear
9:48 PM 75.2 °F - 73.4 °F 94% 29.97 in 10.0 mi ESE 6.9 mph - N/A   Clear
10:08 PM 75.2 °F - 73.4 °F 94% 29.97 in 10.0 mi ESE 8.1 mph - N/A   Clear
10:28 PM 75.2 °F - 73.4 °F 94% 29.97 in 10.0 mi ESE 6.9 mph - N/A   Clear
10:48 PM 75.2 °F - 73.4 °F 94% 29.97 in 10.0 mi ESE 6.9 mph - N/A   Clear
11:08 PM 75.2 °F - 73.4 °F 94% 29.96 in 10.0 mi ESE 5.8 mph - N/A   Clear
11:28 PM 75.2 °F - 73.4 °F 94% 29.97 in 10.0 mi ESE 6.9 mph - N/A   Clear
11:48 PM 75.2 °F - 73.4 °F 94% 29.96 in 10.0 mi ESE 5.8 mph - N/A   Clear